Time,TemperatureF,DewpointF,PressureIn,WindDirection,WindDirectionDegrees,WindSpeedMPH,WindSpeedGustMPH,Humidity,HourlyPrecipIn,Conditions,Clouds,dailyrainin,SolarRadiationWatts/m^2,SoftwareType,DateUTC
2013-02-08 00:07:00,67.0,66.0,29.99,SW,229,0.0,-999.0,95,-99.99,,,0.00,0,weatherlink.com 1.10,2013-02-08 05:07:00,
2013-02-08 00:22:00,66.9,66.0,29.98,SW,227,0.0,-999.0,95,-99.99,,,0.00,0,weatherlink.com 1.10,2013-02-08 05:22:00,
2013-02-08 00:37:00,67.0,65.0,29.97,SW,227,0.0,-999.0,94,-99.99,,,0.00,0,weatherlink.com 1.10,2013-02-08 05:37:00,
2013-02-08 00:52:00,67.4,65.0,29.97,SW,229,0.0,-999.0,93,-99.99,,,0.00,0,weatherlink.com 1.10,2013-02-08 05:52:00,
2013-02-08 01:07:00,67.7,66.0,29.96,SW,229,0.0,-999.0,93,-99.99,,,0.00,0,weatherlink.com 1.10,2013-02-08 06:07:00,
2013-02-08 01:22:00,68.1,66.0,29.96,WSW,245,0.0,-999.0,92,-99.99,,,0.00,0,weatherlink.com 1.10,2013-02-08 06:22:00,
2013-02-08 01:37:00,68.3,66.0,29.95,WSW,250,0.0,-999.0,92,-99.99,,,0.00,0,weatherlink.com 1.10,2013-02-08 06:37:00,
2013-02-08 01:52:00,68.7,66.0,29.95,West,266,1.0,-999.0,91,-99.99,,,0.00,0,weatherlink.com 1.10,2013-02-08 06:52:00,
2013-02-08 02:07:00,69.2,66.0,29.95,WSW,238,2.0,-999.0,90,-99.99,,,0.00,0,weatherlink.com 1.10,2013-02-08 07:07:00,
2013-02-08 02:22:00,69.6,66.0,29.94,WSW,238,4.0,-999.0,89,-99.99,,,0.00,0,weatherlink.com 1.10,2013-02-08 07:22:00,
2013-02-08 02:37:00,70.0,67.0,29.93,SW,230,1.0,-999.0,89,-99.99,,,0.00,0,weatherlink.com 1.10,2013-02-08 07:37:00,
2013-02-08 02:52:00,69.9,67.0,29.93,WSW,242,0.0,-999.0,90,-99.99,,,0.00,0,weatherlink.com 1.10,2013-02-08 07:52:00,
2013-02-08 03:07:00,70.0,67.0,29.93,SW,236,7.0,-999.0,91,-99.99,,,0.00,0,weatherlink.com 1.10,2013-02-08 08:07:00,
2013-02-08 03:22:00,70.3,67.0,29.92,WSW,246,1.0,-999.0,90,-99.99,,,0.00,0,weatherlink.com 1.10,2013-02-08 08:22:00,
2013-02-08 03:37:00,70.4,68.0,29.92,SW,223,6.0,-999.0,91,-99.99,,,0.00,0,weatherlink.com 1.10,2013-02-08 08:37:00,
2013-02-08 03:52:00,70.4,68.0,29.93,SW,222,10.0,-999.0,91,-99.99,,,0.00,0,weatherlink.com 1.10,2013-02-08 08:52:00,
2013-02-08 04:07:00,70.0,68.0,29.93,WSW,242,7.0,-999.0,92,-99.99,,,0.00,0,weatherlink.com 1.10,2013-02-08 09:07:00,
2013-02-08 04:22:00,70.1,68.0,29.92,WSW,257,5.0,-999.0,93,-99.99,,,0.00,0,weatherlink.com 1.10,2013-02-08 09:22:00,
2013-02-08 04:37:00,70.1,68.0,29.93,WSW,242,0.0,-999.0,93,-99.99,,,0.00,0,weatherlink.com 1.10,2013-02-08 09:37:00,
2013-02-08 04:52:00,70.0,68.0,29.92,SW,217,7.0,-999.0,94,-99.99,,,0.00,0,weatherlink.com 1.10,2013-02-08 09:52:00,
2013-02-08 05:07:00,70.3,69.0,29.93,SSW,202,5.0,-999.0,94,-99.99,,,0.00,0,weatherlink.com 1.10,2013-02-08 10:07:00,
2013-02-08 05:22:00,70.1,68.0,29.94,WSW,254,7.0,-999.0,94,-99.99,,,0.00,0,weatherlink.com 1.10,2013-02-08 10:22:00,
2013-02-08 05:37:00,69.9,68.0,29.95,SW,230,4.0,-999.0,94,-99.99,,,0.00,0,weatherlink.com 1.10,2013-02-08 10:37:00,
2013-02-08 05:52:00,69.8,68.0,29.95,SW,226,0.0,-999.0,95,-99.99,,,0.00,0,weatherlink.com 1.10,2013-02-08 10:52:00,
2013-02-08 06:07:00,69.8,68.0,29.96,WSW,251,0.0,-999.0,95,-99.99,,,0.00,0,weatherlink.com 1.10,2013-02-08 11:07:00,
2013-02-08 06:22:00,69.8,68.0,29.96,WSW,254,1.0,-999.0,95,-99.99,,,0.00,0,weatherlink.com 1.10,2013-02-08 11:22:00,
2013-02-08 06:37:00,69.9,69.0,29.96,SW,219,3.0,-999.0,95,-99.99,,,0.00,0,weatherlink.com 1.10,2013-02-08 11:37:00,
2013-02-08 06:52:00,69.8,68.0,29.97,SW,235,0.0,-999.0,95,-99.99,,,0.00,0,weatherlink.com 1.10,2013-02-08 11:52:00,
2013-02-08 07:07:00,69.8,68.0,29.97,SW,236,1.0,-999.0,95,-99.99,,,0.00,7,weatherlink.com 1.10,2013-02-08 12:07:00,
2013-02-08 07:22:00,69.9,69.0,29.97,WSW,254,2.0,-999.0,95,-99.99,,,0.00,23,weatherlink.com 1.10,2013-02-08 12:22:00,
2013-02-08 07:37:00,70.0,69.0,29.98,WSW,242,1.0,-999.0,95,-99.99,,,0.00,28,weatherlink.com 1.10,2013-02-08 12:37:00,
2013-02-08 07:52:00,70.1,69.0,29.99,WSW,242,0.0,-999.0,96,-99.99,,,0.00,39,weatherlink.com 1.10,2013-02-08 12:52:00,
2013-02-08 08:07:00,70.7,70.0,30.00,WSW,239,1.0,-999.0,96,-99.99,,,0.00,142,weatherlink.com 1.10,2013-02-08 13:07:00,
2013-02-08 08:24:00,71.3,70.0,30.00,WSW,239,2.0,-999.0,95,-99.99,,,0.00,206,weatherlink.com 1.10,2013-02-08 13:24:00,
2013-02-08 08:37:00,72.1,70.0,30.01,SW,228,5.0,-999.0,94,-99.99,,,0.00,302,weatherlink.com 1.10,2013-02-08 13:37:00,
2013-02-08 08:52:00,72.8,70.0,30.01,SW,234,0.0,-999.0,92,-99.99,,,0.00,186,weatherlink.com 1.10,2013-02-08 13:52:00,
2013-02-08 09:07:00,73.4,71.0,30.02,WSW,240,2.0,-999.0,91,-99.99,,,0.00,299,weatherlink.com 1.10,2013-02-08 14:07:00,
2013-02-08 09:23:00,74.2,71.0,30.02,SW,222,0.0,-999.0,89,-99.99,,,0.00,329,weatherlink.com 1.10,2013-02-08 14:23:00,
2013-02-08 09:37:00,74.5,71.0,30.02,SW,228,1.0,-999.0,88,-99.99,,,0.00,427,weatherlink.com 1.10,2013-02-08 14:37:00,
2013-02-08 09:52:00,75.3,71.0,30.03,SW,229,3.0,-999.0,86,-99.99,,,0.00,480,weatherlink.com 1.10,2013-02-08 14:52:00,
2013-02-08 10:07:00,75.7,71.0,30.04,SW,227,3.0,-999.0,85,-99.99,,,0.00,515,weatherlink.com 1.10,2013-02-08 15:07:00,
2013-02-08 10:22:00,76.2,71.0,30.04,SW,234,0.0,-999.0,84,-99.99,,,0.00,550,weatherlink.com 1.10,2013-02-08 15:22:00,
2013-02-08 10:37:00,76.8,71.0,30.04,NW,321,0.0,-999.0,83,-99.99,,,0.00,538,weatherlink.com 1.10,2013-02-08 15:37:00,
2013-02-08 10:52:00,77.0,72.0,30.04,NNW,332,1.0,-999.0,83,-99.99,,,0.00,243,weatherlink.com 1.10,2013-02-08 15:52:00,
2013-02-08 11:07:00,76.9,71.0,30.04,WSW,257,2.0,-999.0,82,-99.99,,,0.00,188,weatherlink.com 1.10,2013-02-08 16:07:00,
2013-02-08 11:23:00,76.1,71.0,30.05,WNW,298,0.0,-999.0,84,-99.99,,,0.00,211,weatherlink.com 1.10,2013-02-08 16:23:00,
2013-02-08 11:37:00,75.8,71.0,30.04,WNW,282,0.0,-999.0,85,-99.99,,,0.00,359,weatherlink.com 1.10,2013-02-08 16:37:00,
2013-02-08 11:52:00,75.9,71.0,30.04,WSW,240,0.0,-999.0,84,-99.99,,,0.00,350,weatherlink.com 1.10,2013-02-08 16:52:00,
2013-02-08 12:07:00,77.3,71.0,30.03,WSW,241,0.0,-999.0,80,-99.99,,,0.00,738,weatherlink.com 1.10,2013-02-08 17:07:00,
2013-02-08 12:23:00,78.0,71.0,30.03,West,261,1.0,-999.0,79,-99.99,,,0.00,487,weatherlink.com 1.10,2013-02-08 17:23:00,
2013-02-08 12:52:00,77.8,70.0,30.03,WNW,290,1.0,-999.0,78,-99.99,,,0.00,719,weatherlink.com 1.10,2013-02-08 17:52:00,
2013-02-08 13:07:00,78.7,71.0,30.02,WNW,291,1.0,-999.0,77,-99.99,,,0.00,710,weatherlink.com 1.10,2013-02-08 18:07:00,
2013-02-08 13:23:00,79.1,70.0,30.02,West,281,3.0,-999.0,74,-99.99,,,0.00,703,weatherlink.com 1.10,2013-02-08 18:23:00,
2013-02-08 13:37:00,79.4,70.0,30.01,WNW,294,0.0,-999.0,73,-99.99,,,0.00,691,weatherlink.com 1.10,2013-02-08 18:37:00,
2013-02-08 13:53:00,80.2,70.0,30.01,WNW,288,1.0,-999.0,70,-99.99,,,0.00,671,weatherlink.com 1.10,2013-02-08 18:53:00,
2013-02-08 14:07:00,79.7,70.0,30.00,NNW,335,0.0,-999.0,71,-99.99,,,0.00,652,weatherlink.com 1.10,2013-02-08 19:07:00,
2013-02-08 14:22:00,79.7,69.0,30.00,NW,313,0.0,-999.0,70,-99.99,,,0.00,628,weatherlink.com 1.10,2013-02-08 19:22:00,
2013-02-08 14:37:00,79.8,69.0,30.00,North,360,0.0,-999.0,69,-99.99,,,0.00,601,weatherlink.com 1.10,2013-02-08 19:37:00,
2013-02-08 14:53:00,80.7,69.0,30.00,NW,319,1.0,-999.0,67,-99.99,,,0.00,570,weatherlink.com 1.10,2013-02-08 19:53:00,
2013-02-08 15:07:00,79.8,70.0,29.99,WNW,302,0.0,-999.0,72,-99.99,,,0.00,538,weatherlink.com 1.10,2013-02-08 20:07:00,
2013-02-08 15:22:00,79.4,70.0,29.99,WNW,284,0.0,-999.0,72,-99.99,,,0.00,501,weatherlink.com 1.10,2013-02-08 20:22:00,
2013-02-08 15:38:00,77.4,69.0,29.99,WNW,303,0.0,-999.0,75,-99.99,,,0.00,462,weatherlink.com 1.10,2013-02-08 20:38:00,
2013-02-08 15:52:00,77.6,68.0,29.99,WNW,297,4.0,-999.0,73,-99.99,,,0.00,418,weatherlink.com 1.10,2013-02-08 20:52:00,
2013-02-08 16:07:00,78.1,68.0,29.99,WNW,290,0.0,-999.0,71,-99.99,,,0.00,369,weatherlink.com 1.10,2013-02-08 21:07:00,
2013-02-08 16:22:00,77.8,67.0,30.00,NW,316,1.0,-999.0,69,-99.99,,,0.00,322,weatherlink.com 1.10,2013-02-08 21:22:00,
2013-02-08 16:37:00,76.3,66.0,30.00,West,270,4.0,-999.0,71,-99.99,,,0.00,272,weatherlink.com 1.10,2013-02-08 21:37:00,
2013-02-08 16:53:00,75.4,66.0,30.00,WNW,296,1.0,-999.0,72,-99.99,,,0.00,207,weatherlink.com 1.10,2013-02-08 21:53:00,
2013-02-08 17:07:00,74.5,63.0,30.00,WNW,282,1.0,-999.0,67,-99.99,,,0.00,120,weatherlink.com 1.10,2013-02-08 22:07:00,
2013-02-08 17:23:00,72.9,63.0,30.00,WNW,294,2.0,-999.0,71,-99.99,,,0.00,35,weatherlink.com 1.10,2013-02-08 22:23:00,
2013-02-08 17:37:00,72.0,63.0,30.00,NNE,26,3.0,-999.0,73,-99.99,,,0.00,30,weatherlink.com 1.10,2013-02-08 22:37:00,
2013-02-08 17:52:00,71.3,63.0,30.00,WNW,288,0.0,-999.0,75,-99.99,,,0.00,21,weatherlink.com 1.10,2013-02-08 22:52:00,
2013-02-08 18:07:00,70.4,63.0,30.00,WNW,297,0.0,-999.0,78,-99.99,,,0.00,11,weatherlink.com 1.10,2013-02-08 23:07:00,
2013-02-08 18:22:00,69.7,63.0,30.00,North,355,0.0,-999.0,79,-99.99,,,0.00,0,weatherlink.com 1.10,2013-02-08 23:22:00,
2013-02-08 18:37:00,69.2,63.0,30.01,WNW,284,0.0,-999.0,80,-99.99,,,0.00,0,weatherlink.com 1.10,2013-02-08 23:37:00,
2013-02-08 18:52:00,68.8,63.0,30.01,WNW,296,0.0,-999.0,81,-99.99,,,0.00,0,weatherlink.com 1.10,2013-02-08 23:52:00,
2013-02-08 19:07:00,68.5,63.0,30.01,NNW,336,0.0,-999.0,82,-99.99,,,0.00,0,weatherlink.com 1.10,2013-02-09 00:07:00,
2013-02-08 19:22:00,68.3,63.0,30.01,NW,306,0.0,-999.0,83,-99.99,,,0.00,0,weatherlink.com 1.10,2013-02-09 00:22:00,
2013-02-08 19:37:00,68.1,63.0,30.02,WNW,288,0.0,-999.0,83,-99.99,,,0.00,0,weatherlink.com 1.10,2013-02-09 00:37:00,
2013-02-08 19:53:00,67.9,63.0,30.02,NW,321,0.0,-999.0,84,-99.99,,,0.00,0,weatherlink.com 1.10,2013-02-09 00:53:00,
2013-02-08 20:07:00,67.7,63.0,30.03,NNW,348,0.0,-999.0,85,-99.99,,,0.00,0,weatherlink.com 1.10,2013-02-09 01:07:00,
2013-02-08 20:23:00,67.4,63.0,30.03,West,268,1.0,-999.0,86,-99.99,,,0.00,0,weatherlink.com 1.10,2013-02-09 01:23:00,
2013-02-08 20:37:00,67.3,63.0,30.04,WNW,291,0.0,-999.0,87,-99.99,,,0.00,0,weatherlink.com 1.10,2013-02-09 01:37:00,
2013-02-08 20:53:00,67.0,63.0,30.04,NW,312,0.0,-999.0,88,-99.99,,,0.00,0,weatherlink.com 1.10,2013-02-09 01:53:00,
2013-02-08 21:07:00,66.8,64.0,30.05,WNW,291,0.0,-999.0,89,-99.99,,,0.00,0,weatherlink.com 1.10,2013-02-09 02:07:00,
2013-02-08 21:22:00,66.7,63.0,30.05,NW,311,1.0,-999.0,89,-99.99,,,0.00,0,weatherlink.com 1.10,2013-02-09 02:22:00,
2013-02-08 21:37:00,66.6,64.0,30.05,NW,307,0.0,-999.0,90,-99.99,,,0.00,0,weatherlink.com 1.10,2013-02-09 02:37:00,
2013-02-08 21:52:00,66.6,64.0,30.06,West,275,0.0,-999.0,90,-99.99,,,0.00,0,weatherlink.com 1.10,2013-02-09 02:52:00,
2013-02-08 22:07:00,66.7,64.0,30.06,NW,318,0.0,-999.0,91,-99.99,,,0.00,0,weatherlink.com 1.10,2013-02-09 03:07:00,
2013-02-08 22:22:00,66.6,64.0,30.06,WNW,294,0.0,-999.0,91,-99.99,,,0.00,0,weatherlink.com 1.10,2013-02-09 03:22:00,
2013-02-08 22:37:00,66.5,64.0,30.06,NNW,333,0.0,-999.0,91,-99.99,,,0.00,0,weatherlink.com 1.10,2013-02-09 03:37:00,
2013-02-08 22:52:00,66.5,64.0,30.06,NNW,331,0.0,-999.0,91,-99.99,,,0.00,0,weatherlink.com 1.10,2013-02-09 03:52:00,
2013-02-08 23:07:00,66.4,64.0,30.06,NNW,331,0.0,-999.0,92,-99.99,,,0.00,0,weatherlink.com 1.10,2013-02-09 04:07:00,
2013-02-08 23:23:00,66.3,64.0,30.07,NW,317,0.0,-999.0,92,-99.99,,,0.00,0,weatherlink.com 1.10,2013-02-09 04:23:00,
2013-02-08 23:37:00,66.1,64.0,30.06,NW,326,0.0,-999.0,93,-99.99,,,0.00,0,weatherlink.com 1.10,2013-02-09 04:37:00,
2013-02-08 23:53:00,65.8,64.0,30.06,West,276,0.0,-999.0,93,-99.99,,,0.00,0,weatherlink.com 1.10,2013-02-09 04:53:00,